| time (UTC) | temp C | wind direction | speed KPH | gust KPH | rain 1hr cm | rain 24hr cm | rain mn cm | humidity % | barometer mb |
| 20260507172009 | 20 | 145 | 6.4 | 16.1 | 0.00 | 0.00 | 0.00 | 45 | 1018.5 |
| 20260507171512 | 19 | 257 | 4.8 | 12.9 | 0.00 | 0.00 | 0.00 | 41 | 1018.6 |
| 20260507171010 | 18 | 279 | 3.2 | 16.1 | 0.00 | 0.00 | 0.00 | 44 | 1018.8 |
| 20260507170507 | 18 | 202 | 6.4 | 16.1 | 0.00 | 0.00 | 0.00 | 42 | 1018.8 |
| 20260507170011 | 19 | 208 | 4.8 | 16.1 | 0.00 | 0.00 | 0.00 | 42 | 1018.8 |
| 20260507165510 | 19 | 240 | 6.4 | 11.3 | 0.00 | 0.00 | 0.00 | 43 | 1018.9 |
| 20260507165007 | 19 | 275 | 3.2 | 11.3 | 0.00 | 0.00 | 0.00 | 45 | 1018.9 |
| 20260507164511 | 18 | 177 | 4.8 | 11.3 | 0.00 | 0.00 | 0.00 | 43 | 1019.0 |
| 20260507164007 | 18 | 181 | 1.6 | 17.7 | 0.00 | 0.00 | 0.00 | 43 | 1019.0 |
| 20260507163507 | 18 | 262 | 6.4 | 19.3 | 0.00 | 0.00 | 0.00 | 43 | 1019.2 |
| 20260507163027 | 18 | 150 | 9.7 | 19.3 | 0.00 | 0.00 | 0.00 | 46 | 1019.3 |
| 20260507162508 | 18 | 126 | 4.8 | 12.9 | 0.00 | 0.00 | 0.00 | 43 | 1019.3 |
| 20260507162007 | 18 | 354 | 3.2 | 9.7 | 0.00 | 0.00 | 0.00 | 42 | 1019.3 |
| 20260507161524 | 18 | 218 | 3.2 | 16.1 | 0.00 | 0.00 | 0.00 | 46 | 1019.4 |
| 20260507161006 | 18 | 213 | 8.0 | 16.1 | 0.00 | 0.00 | 0.00 | 43 | 1019.4 |
| 20260507160505 | 17 | 163 | 1.6 | 9.7 | 0.00 | 0.00 | 0.00 | 43 | 1019.4 |
| 20260507160024 | 17 | 185 | 3.2 | 8.0 | 0.00 | 0.00 | 0.00 | 42 | 1019.5 |
| 20260507155512 | 17 | 158 | 3.2 | 12.9 | 0.00 | 0.00 | 0.00 | 44 | 1019.5 |
| 20260507155012 | 17 | 262 | 4.8 | 12.9 | 0.00 | 0.00 | 0.00 | 44 | 1019.6 |
| 20260507154522 | 17 | 192 | 1.6 | 12.9 | 0.00 | 0.00 | 0.00 | 49 | 1019.5 |
| 20260507154009 | 17 | 197 | 6.4 | 12.9 | 0.00 | 0.00 | 0.00 | 49 | 1019.6 |
| 20260507153509 | 17 | 196 | 4.8 | 11.3 | 0.00 | 0.00 | 0.00 | 48 | 1019.6 |
| 20260507153025 | 17 | 194 | 1.6 | 14.5 | 0.00 | 0.00 | 0.00 | 48 | 1019.7 |
| 20260507152503 | 17 | 133 | 4.8 | 14.5 | 0.00 | 0.00 | 0.00 | 48 | 1019.8 |
| 20260507152010 | 17 | 116 | 4.8 | 11.3 | 0.00 | 0.00 | 0.00 | 51 | 1019.8 |
| 20260507151516 | 16 | 171 | 4.8 | 9.7 | 0.00 | 0.00 | 0.00 | 51 | 1019.9 |
| 20260507151012 | 16 | 175 | 4.8 | 12.9 | 0.00 | 0.00 | 0.00 | 49 | 1020.1 |
| 20260507150508 | 16 | 152 | 4.8 | 12.9 | 0.00 | 0.00 | 0.00 | 53 | 1020.1 |
| 20260507150028 | 16 | 119 | 4.8 | 9.7 | 0.00 | 0.00 | 0.00 | 52 | 1020.2 |
| 20260507145510 | 15 | 107 | 4.8 | 12.9 | 0.00 | 0.00 | 0.00 | 51 | 1020.4 |
| 20260507145006 | 15 | 146 | 6.4 | 12.9 | 0.00 | 0.00 | 0.00 | 51 | 1020.4 |
| 20260507144531 | 15 | 204 | 6.4 | 11.3 | 0.00 | 0.00 | 0.00 | 50 | 1020.4 |
| 20260507144008 | 15 | 152 | 4.8 | 11.3 | 0.00 | 0.00 | 0.00 | 51 | 1020.5 |
| 20260507143506 | 15 | 155 | 4.8 | 11.3 | 0.00 | 0.00 | 0.00 | 50 | 1020.3 |
| 20260507143031 | 15 | 211 | 4.8 | 11.3 | 0.00 | 0.00 | 0.00 | 51 | 1020.3 |
| 20260507142509 | 15 | 160 | 1.6 | 8.0 | 0.00 | 0.00 | 0.00 | 52 | 1020.3 |
| 20260507142007 | 15 | 126 | 3.2 | 11.3 | 0.00 | 0.00 | 0.00 | 53 | 1020.3 |
| 20260507141527 | 14 | 151 | 3.2 | 11.3 | 0.00 | 0.00 | 0.00 | 54 | 1020.3 |
| 20260507141008 | 13 | 137 | 4.8 | 11.3 | 0.00 | 0.00 | 0.00 | 56 | 1020.2 |
| 20260507140507 | 13 | 180 | 1.6 | 12.9 | 0.00 | 0.00 | 0.00 | 58 | 1020.3 |
| 20260507140027 | 13 | 194 | 1.6 | 12.9 | 0.00 | 0.00 | 0.00 | 60 | 1020.2 |
| 20260507135506 | 12 | 174 | 3.2 | 8.0 | 0.00 | 0.00 | 0.00 | 61 | 1020.2 |
| 20260507135010 | 12 | 199 | 3.2 | 6.4 | 0.00 | 0.00 | 0.00 | 63 | 1020.2 |
| 20260507134503 | 12 | 148 | 1.6 | 9.7 | 0.00 | 0.00 | 0.00 | 63 | 1020.2 |
| 20260507134006 | 12 | 204 | 4.8 | 9.7 | 0.00 | 0.00 | 0.00 | 64 | 1020.1 |
| 20260507133515 | 12 | 151 | 4.8 | 8.0 | 0.00 | 0.00 | 0.00 | 67 | 1020.0 |
| 20260507133003 | 11 | 171 | 3.2 | 6.4 | 0.00 | 0.00 | 0.00 | 71 | 1020.0 |
| 20260507132507 | 11 | 194 | 1.6 | 4.8 | 0.00 | 0.00 | 0.00 | 76 | 1020.1 |
| 20260507132006 | 10 | 29 | 0.0 | 3.2 | 0.00 | 0.00 | 0.00 | 83 | 1020.1 |
| 20260507131525 | 10 | 63 | 0.0 | 3.2 | 0.00 | 0.00 | 0.00 | 84 | 1020.1 |
| 20260507131009 | 9 | 48 | 0.0 | 3.2 | 0.00 | 0.00 | 0.00 | 86 | 1020.0 |
| 20260507130504 | 9 | 48 | 0.0 | 3.2 | 0.00 | 0.00 | 0.00 | 87 | 1019.9 |
| 20260507130017 | 8 | 47 | 0.0 | 3.2 | 0.00 | 0.00 | 0.00 | 88 | 1020.0 |
| 20260507125507 | 8 | 47 | 0.0 | 3.2 | 0.00 | 0.00 | 0.00 | 89 | 1019.9 |
| 20260507125003 | 7 | 47 | 0.0 | 3.2 | 0.00 | 0.00 | 0.00 | 89 | 1019.8 |
| 20260507124532 | 7 | 47 | 0.0 | 3.2 | 0.00 | 0.00 | 0.00 | 88 | 1019.8 |
| 20260507124014 | 7 | 46 | 0.0 | 0.0 | 0.00 | 0.00 | 0.00 | 88 | 1019.8 |
| 20260507123509 | 6 | 46 | 0.0 | 0.0 | 0.00 | 0.00 | 0.00 | 88 | 1019.8 |
| 20260507123021 | 6 | 44 | 0.0 | 0.0 | 0.00 | 0.00 | 0.00 | 88 | 1019.8 |
| 20260507122502 | 6 | 44 | 0.0 | 1.6 | 0.00 | 0.00 | 0.00 | 88 | 1019.7 |
| 20260507122009 | 6 | 44 | 0.0 | 3.2 | 0.00 | 0.00 | 0.00 | 88 | 1019.7 |
| 20260507121508 | 6 | 329 | 0.0 | 3.2 | 0.00 | 0.00 | 0.00 | 87 | 1019.6 |
| 20260507121007 | 6 | 324 | 0.0 | 0.0 | 0.00 | 0.00 | 0.00 | 87 | 1019.5 |
| 20260507120509 | 6 | 324 | 0.0 | 0.0 | 0.00 | 0.00 | 0.00 | 87 | 1019.4 |
| 20260507120009 | 6 | 324 | 0.0 | 0.0 | 0.00 | 0.00 | 0.00 | 87 | 1019.4 |
| 20260507115509 | 6 | 324 | 0.0 | 0.0 | 0.00 | 0.00 | 0.00 | 87 | 1019.4 |
| 20260507115009 | 6 | 324 | 0.0 | 0.0 | 0.00 | 0.00 | 0.00 | 86 | 1019.3 |
| 20260507114507 | 6 | 324 | 0.0 | 0.0 | 0.00 | 0.00 | 0.00 | 86 | 1019.3 |
| 20260507114009 | 6 | 324 | 0.0 | 0.0 | 0.00 | 0.00 | 0.00 | 86 | 1019.2 |
| 20260507113504 | 6 | 324 | 0.0 | 0.0 | 0.00 | 0.00 | 0.00 | 86 | 1019.2 |
| 20260507113004 | 6 | 324 | 0.0 | 0.0 | 0.00 | 0.00 | 0.00 | 86 | 1019.2 |
| 20260507112507 | 6 | 324 | 0.0 | 0.0 | 0.00 | 0.00 | 0.00 | 86 | 1019.2 |
| 20260507112007 | 6 | 324 | 0.0 | 0.0 | 0.00 | 0.00 | 0.00 | 85 | 1019.2 |
| 20260507111524 | 6 | 324 | 0.0 | 0.0 | 0.00 | 0.00 | 0.00 | 85 | 1019.2 |
| 20260507111009 | 6 | 324 | 0.0 | 0.0 | 0.00 | 0.00 | 0.00 | 85 | 1019.1 |
| 20260507110503 | 6 | 324 | 0.0 | 0.0 | 0.00 | 0.00 | 0.00 | 85 | 1019.0 |
| 20260507110020 | 6 | 324 | 0.0 | 0.0 | 0.00 | 0.00 | 0.00 | 85 | 1019.1 |
| 20260507105506 | 6 | 324 | 0.0 | 0.0 | 0.00 | 0.00 | 0.00 | 85 | 1019.1 |
| 20260507105010 | 6 | 324 | 0.0 | 0.0 | 0.00 | 0.00 | 0.00 | 85 | 1019.1 |
| 20260507104525 | 6 | 324 | 0.0 | 0.0 | 0.00 | 0.00 | 0.00 | 85 | 1019.1 |
| 20260507104004 | 6 | 324 | 0.0 | 0.0 | 0.00 | 0.00 | 0.00 | 85 | 1019.1 |
| 20260507103507 | 6 | 324 | 0.0 | 0.0 | 0.00 | 0.00 | 0.00 | 84 | 1019.0 |
| 20260507103022 | 6 | 324 | 0.0 | 0.0 | 0.00 | 0.00 | 0.00 | 84 | 1019.0 |
| 20260507102503 | 6 | 324 | 0.0 | 0.0 | 0.00 | 0.00 | 0.00 | 84 | 1019.1 |
| 20260507102012 | 6 | 324 | 0.0 | 0.0 | 0.00 | 0.00 | 0.00 | 83 | 1019.1 |
| 20260507101511 | 6 | 324 | 0.0 | 0.0 | 0.00 | 0.00 | 0.00 | 83 | 1019.0 |
| 20260507101011 | 6 | 324 | 0.0 | 0.0 | 0.00 | 0.00 | 0.00 | 83 | 1019.1 |
| 20260507100506 | 7 | 324 | 0.0 | 0.0 | 0.00 | 0.00 | 0.00 | 83 | 1019.1 |
| 20260507100024 | 7 | 324 | 0.0 | 0.0 | 0.00 | 0.00 | 0.00 | 82 | 1019.0 |
| 20260507095510 | 7 | 324 | 0.0 | 0.0 | 0.00 | 0.00 | 0.00 | 82 | 1018.9 |
| 20260507095014 | 7 | 324 | 0.0 | 0.0 | 0.00 | 0.00 | 0.00 | 82 | 1019.0 |
| 20260507094508 | 7 | 324 | 0.0 | 0.0 | 0.00 | 0.00 | 0.00 | 82 | 1018.8 |
| 20260507094007 | 7 | 324 | 0.0 | 0.0 | 0.00 | 0.00 | 0.00 | 81 | 1018.7 |
| 20260507093507 | 7 | 324 | 0.0 | 0.0 | 0.00 | 0.00 | 0.00 | 81 | 1018.8 |
| 20260507093031 | 7 | 324 | 0.0 | 3.2 | 0.00 | 0.00 | 0.00 | 81 | 1018.9 |
| 20260507092509 | 7 | 324 | 0.0 | 3.2 | 0.00 | 0.00 | 0.00 | 81 | 1018.9 |
| 20260507092003 | 7 | 324 | 0.0 | 3.2 | 0.00 | 0.00 | 0.00 | 81 | 1019.0 |
| 20260507091546 | 7 | 324 | 0.0 | 3.2 | 0.00 | 0.00 | 0.00 | 81 | 1018.9 |
| 20260507091011 | 7 | 324 | 0.0 | 3.2 | 0.00 | 0.00 | 0.00 | 81 | 1019.0 |
| 20260507090504 | 7 | 324 | 1.6 | 3.2 | 0.00 | 0.00 | 0.00 | 80 | 1019.0 |
| 20260507090023 | 7 | 324 | 0.0 | 3.2 | 0.00 | 0.00 | 0.00 | 81 | 1018.8 |
| 20260507085506 | 7 | 324 | 0.0 | 3.2 | 0.00 | 0.00 | 0.00 | 81 | 1019.0 |
| 20260507085009 | 7 | 324 | 0.0 | 4.8 | 0.00 | 0.00 | 0.00 | 81 | 1019.1 |
| 20260507084517 | 7 | 324 | 0.0 | 4.8 | 0.00 | 0.00 | 0.00 | 81 | 1019.1 |
| 20260507084003 | 7 | 325 | 0.0 | 4.8 | 0.00 | 0.00 | 0.00 | 81 | 1019.1 |
| 20260507083506 | 7 | 326 | 1.6 | 4.8 | 0.00 | 0.00 | 0.00 | 81 | 1019.2 |
| 20260507083020 | 7 | 347 | 1.6 | 3.2 | 0.00 | 0.00 | 0.00 | 80 | 1019.0 |
| 20260507082508 | 7 | 348 | 0.0 | 0.0 | 0.00 | 0.00 | 0.00 | 80 | 1019.0 |
| 20260507082011 | 7 | 348 | 0.0 | 0.0 | 0.00 | 0.00 | 0.00 | 80 | 1018.9 |
| 20260507081513 | 7 | 348 | 0.0 | 0.0 | 0.00 | 0.00 | 0.00 | 79 | 1019.0 |
| 20260507081009 | 7 | 348 | 0.0 | 3.2 | 0.00 | 0.00 | 0.00 | 79 | 1018.9 |
| 20260507080512 | 7 | 348 | 0.0 | 3.2 | 0.00 | 0.00 | 0.00 | 78 | 1018.9 |
| 20260507080010 | 8 | 348 | 0.0 | 0.0 | 0.00 | 0.00 | 0.00 | 78 | 1019.0 |
| 20260507075507 | 8 | 348 | 0.0 | 0.0 | 0.00 | 0.00 | 0.00 | 77 | 1018.9 |
| 20260507075012 | 8 | 348 | 0.0 | 0.0 | 0.00 | 0.00 | 0.00 | 77 | 1019.0 |
| 20260507074531 | 8 | 348 | 0.0 | 0.0 | 0.00 | 0.00 | 0.00 | 76 | 1019.1 |
| 20260507074007 | 8 | 348 | 0.0 | 0.0 | 0.00 | 0.00 | 0.00 | 76 | 1019.1 |
| 20260507073508 | 8 | 348 | 0.0 | 0.0 | 0.00 | 0.00 | 0.00 | 75 | 1019.1 |
| 20260507073026 | 8 | 348 | 0.0 | 0.0 | 0.00 | 0.00 | 0.00 | 75 | 1019.2 |
| 20260507072509 | 8 | 348 | 0.0 | 3.2 | 0.00 | 0.00 | 0.00 | 75 | 1019.1 |
| 20260507072009 | 8 | 348 | 0.0 | 3.2 | 0.00 | 0.00 | 0.00 | 74 | 1019.1 |
| 20260507071523 | 9 | 348 | 0.0 | 3.2 | 0.00 | 0.00 | 0.00 | 74 | 1019.3 |
| 20260507071008 | 9 | 348 | 0.0 | 3.2 | 0.00 | 0.00 | 0.00 | 73 | 1019.4 |
| 20260507070509 | 9 | 348 | 0.0 | 3.2 | 0.00 | 0.00 | 0.00 | 73 | 1019.4 |
| 20260507070024 | 9 | 348 | 0.0 | 3.2 | 0.00 | 0.00 | 0.00 | 72 | 1019.3 |
| 20260507065504 | 9 | 348 | 0.0 | 3.2 | 0.00 | 0.00 | 0.00 | 72 | 1019.5 |
| 20260507065008 | 9 | 348 | 0.0 | 3.2 | 0.00 | 0.00 | 0.00 | 71 | 1019.4 |
| 20260507064526 | 9 | 348 | 0.0 | 3.2 | 0.00 | 0.00 | 0.00 | 71 | 1019.5 |
| 20260507064007 | 10 | 348 | 0.0 | 3.2 | 0.00 | 0.00 | 0.00 | 71 | 1019.6 |
| 20260507063511 | 10 | 348 | 1.6 | 3.2 | 0.00 | 0.00 | 0.00 | 71 | 1019.6 |
| 20260507063021 | 10 | 348 | 1.6 | 3.2 | 0.00 | 0.00 | 0.00 | 70 | 1019.6 |
| 20260507062512 | 10 | 348 | 1.6 | 3.2 | 0.00 | 0.00 | 0.00 | 70 | 1019.5 |
| 20260507062011 | 10 | 348 | 1.6 | 3.2 | 0.00 | 0.00 | 0.00 | 69 | 1019.4 |
| 20260507061528 | 10 | 348 | 1.6 | 3.2 | 0.00 | 0.00 | 0.00 | 69 | 1019.4 |
| 20260507061003 | 10 | 354 | 1.6 | 3.2 | 0.00 | 0.00 | 0.00 | 68 | 1019.3 |
| 20260507060503 | 10 | 354 | 0.0 | 3.2 | 0.00 | 0.00 | 0.00 | 68 | 1019.3 |
| 20260507060026 | 10 | 354 | 0.0 | 3.2 | 0.00 | 0.00 | 0.00 | 67 | 1019.1 |
| 20260507055503 | 10 | 354 | 1.6 | 3.2 | 0.00 | 0.00 | 0.00 | 67 | 1019.1 |
| 20260507055006 | 10 | 354 | 0.0 | 3.2 | 0.00 | 0.00 | 0.00 | 66 | 1019.0 |
| 20260507054511 | 10 | 354 | 1.6 | 6.4 | 0.00 | 0.00 | 0.00 | 66 | 1018.9 |
| 20260507054002 | 10 | 327 | 0.0 | 6.4 | 0.00 | 0.00 | 0.00 | 66 | 1019.2 |
| 20260507053506 | 10 | 325 | 3.2 | 4.8 | 0.00 | 0.00 | 0.00 | 66 | 1019.2 |
| 20260507053011 | 10 | 36 | 1.6 | 3.2 | 0.00 | 0.00 | 0.00 | 65 | 1018.9 |
| 20260507052502 | 10 | 36 | 0.0 | 3.2 | 0.00 | 0.00 | 0.00 | 65 | 1018.9 |
| 20260507052006 | 11 | 36 | 0.0 | 3.2 | 0.00 | 0.00 | 0.00 | 64 | 1018.9 |
| 20260507051504 | 11 | 36 | 0.0 | 3.2 | 0.00 | 0.00 | 0.00 | 64 | 1018.8 |
| 20260507051010 | 11 | 36 | 0.0 | 3.2 | 0.00 | 0.00 | 0.00 | 64 | 1018.8 |
| 20260507050506 | 11 | 36 | 0.0 | 3.2 | 0.00 | 0.00 | 0.00 | 63 | 1018.9 |
| 20260507050031 | 11 | 36 | 0.0 | 3.2 | 0.00 | 0.00 | 0.00 | 63 | 1018.8 |
| 20260507045506 | 11 | 36 | 1.6 | 4.8 | 0.00 | 0.00 | 0.00 | 62 | 1018.7 |
| 20260507045006 | 11 | 36 | 1.6 | 4.8 | 0.00 | 0.00 | 0.00 | 62 | 1018.8 |
| 20260507044503 | 11 | 38 | 1.6 | 4.8 | 0.00 | 0.00 | 0.00 | 63 | 1018.8 |
| 20260507044014 | 11 | 39 | 1.6 | 4.8 | 0.00 | 0.00 | 0.00 | 62 | 1018.8 |
| 20260507043503 | 11 | 39 | 0.0 | 3.2 | 0.00 | 0.00 | 0.00 | 62 | 1018.8 |
| 20260507043020 | 11 | 39 | 0.0 | 3.2 | 0.00 | 0.00 | 0.00 | 61 | 1018.7 |
| 20260507042511 | 11 | 39 | 0.0 | 4.8 | 0.00 | 0.00 | 0.00 | 61 | 1018.7 |
| 20260507042002 | 12 | 39 | 1.6 | 4.8 | 0.00 | 0.00 | 0.00 | 61 | 1018.7 |
| 20260507041516 | 12 | 38 | 0.0 | 4.8 | 0.00 | 0.00 | 0.00 | 61 | 1018.7 |
| 20260507041010 | 12 | 38 | 1.6 | 6.4 | 0.00 | 0.00 | 0.00 | 61 | 1018.7 |
| 20260507040511 | 12 | 24 | 3.2 | 6.4 | 0.00 | 0.00 | 0.00 | 61 | 1018.7 |
| 20260507040030 | 12 | 26 | 0.0 | 6.4 | 0.00 | 0.00 | 0.00 | 61 | 1018.8 |
| 20260507035503 | 12 | 25 | 1.6 | 6.4 | 0.00 | 0.00 | 0.00 | 61 | 1018.8 |
| 20260507035007 | 12 | 35 | 0.0 | 4.8 | 0.00 | 0.00 | 0.00 | 61 | 1018.8 |
| 20260507034526 | 12 | 35 | 1.6 | 6.4 | 0.00 | 0.00 | 0.00 | 61 | 1018.7 |
| 20260507034004 | 12 | 34 | 1.6 | 6.4 | 0.00 | 0.00 | 0.00 | 60 | 1018.7 |
| 20260507033506 | 12 | 36 | 0.0 | 6.4 | 0.00 | 0.00 | 0.00 | 60 | 1018.8 |
| 20260507033010 | 12 | 38 | 1.6 | 6.4 | 0.00 | 0.00 | 0.00 | 60 | 1018.6 |
| 20260507032504 | 12 | 34 | 0.0 | 6.4 | 0.00 | 0.00 | 0.00 | 60 | 1018.5 |
| 20260507032008 | 12 | 34 | 1.6 | 6.4 | 0.00 | 0.00 | 0.00 | 60 | 1018.5 |
| 20260507031508 | 12 | 32 | 0.0 | 6.4 | 0.00 | 0.00 | 0.00 | 60 | 1018.5 |
| 20260507031011 | 12 | 31 | 1.6 | 6.4 | 0.00 | 0.00 | 0.00 | 59 | 1018.4 |
| 20260507030508 | 12 | 57 | 1.6 | 3.2 | 0.00 | 0.00 | 0.00 | 59 | 1018.3 |
| 20260507030008 | 12 | 58 | 0.0 | 3.2 | 0.00 | 0.00 | 0.00 | 58 | 1018.4 |
| 20260507025508 | 12 | 58 | 0.0 | 4.8 | 0.00 | 0.00 | 0.00 | 58 | 1018.4 |
| 20260507025003 | 12 | 58 | 0.0 | 4.8 | 0.00 | 0.00 | 0.00 | 58 | 1018.3 |
| 20260507024504 | 12 | 35 | 1.6 | 3.2 | 0.00 | 0.00 | 0.00 | 59 | 1018.2 |
| 20260507024007 | 12 | 356 | 1.6 | 3.2 | 0.00 | 0.00 | 0.00 | 59 | 1018.1 |
| 20260507023503 | 13 | 1 | 0.0 | 4.8 | 0.00 | 0.00 | 0.00 | 59 | 1018.1 |
| 20260507023025 | 13 | 22 | 1.6 | 4.8 | 0.00 | 0.00 | 0.00 | 59 | 1018.1 |
| 20260507022506 | 13 | 17 | 0.0 | 3.2 | 0.00 | 0.00 | 0.00 | 58 | 1018.0 |
| 20260507022004 | 13 | 38 | 1.6 | 3.2 | 0.00 | 0.00 | 0.00 | 58 | 1018.0 |
| 20260507021520 | 13 | 38 | 0.0 | 3.2 | 0.00 | 0.00 | 0.00 | 57 | 1018.0 |
| 20260507021007 | 13 | 23 | 0.0 | 0.0 | 0.00 | 0.00 | 0.00 | 56 | 1018.0 |
| 20260507020507 | 13 | 23 | 0.0 | 0.0 | 0.00 | 0.00 | 0.00 | 56 | 1017.9 |
| 20260507020018 | 13 | 23 | 0.0 | 0.0 | 0.00 | 0.00 | 0.00 | 55 | 1017.8 |
| 20260507015504 | 13 | 23 | 0.0 | 3.2 | 0.00 | 0.00 | 0.00 | 55 | 1017.7 |
| 20260507015014 | 13 | 23 | 0.0 | 4.8 | 0.00 | 0.00 | 0.00 | 55 | 1017.6 |
| 20260507014516 | 14 | 23 | 0.0 | 4.8 | 0.00 | 0.00 | 0.00 | 54 | 1017.5 |
| 20260507014003 | 14 | 37 | 1.6 | 4.8 | 0.00 | 0.00 | 0.00 | 53 | 1017.5 |
| 20260507013508 | 14 | 38 | 1.6 | 4.8 | 0.00 | 0.00 | 0.00 | 53 | 1017.4 |
| 20260507013016 | 15 | 31 | 0.0 | 9.7 | 0.00 | 0.00 | 0.00 | 52 | 1017.3 |
| 20260507012514 | 15 | 31 | 3.2 | 9.7 | 0.00 | 0.00 | 0.00 | 52 | 1017.2 |
| 20260507012007 | 15 | 21 | 1.6 | 9.7 | 0.00 | 0.00 | 0.00 | 51 | 1017.1 |
| 20260507011508 | 15 | 19 | 3.2 | 9.7 | 0.00 | 0.00 | 0.00 | 52 | 1017.1 |
| 20260507011010 | 15 | 49 | 1.6 | 6.4 | 0.00 | 0.00 | 0.00 | 51 | 1017.0 |
| 20260507010506 | 15 | 41 | 3.2 | 6.4 | 0.00 | 0.00 | 0.00 | 51 | 1017.0 |
| 20260507010009 | 15 | 48 | 1.6 | 11.3 | 0.00 | 0.00 | 0.00 | 50 | 1017.0 |
| 20260507005517 | 15 | 21 | 1.6 | 11.3 | 0.00 | 0.00 | 0.00 | 49 | 1016.9 |
| 20260507005006 | 15 | 31 | 1.6 | 11.3 | 0.00 | 0.00 | 0.00 | 50 | 1016.9 |
| 20260507004524 | 15 | 17 | 1.6 | 12.9 | 0.00 | 0.00 | 0.00 | 49 | 1016.9 |
| 20260507004008 | 16 | 53 | 4.8 | 16.1 | 0.00 | 0.00 | 0.00 | 48 | 1016.8 |
| 20260507003511 | 16 | 36 | 6.4 | 16.1 | 0.00 | 0.00 | 0.00 | 48 | 1016.8 |
| 20260507003024 | 16 | 19 | 6.4 | 14.5 | 0.00 | 0.00 | 0.00 | 47 | 1016.8 |
| 20260507002508 | 16 | 20 | 6.4 | 19.3 | 0.00 | 0.00 | 0.00 | 47 | 1016.7 |
| 20260507002004 | 16 | 46 | 8.0 | 19.3 | 0.00 | 0.00 | 0.00 | 46 | 1016.7 |
| 20260507001521 | 16 | 40 | 8.0 | 16.1 | 0.00 | 0.00 | 0.00 | 47 | 1016.6 |
| 20260507001008 | 16 | 48 | 8.0 | 17.7 | 0.00 | 0.00 | 0.00 | 47 | 1016.6 |
| 20260507000507 | 16 | 50 | 9.7 | 17.7 | 0.00 | 0.00 | 0.00 | 47 | 1016.5 |
| 20260507000026 | 16 | 48 | 4.8 | 17.7 | 0.00 | 0.00 | 0.00 | 47 | 1016.5 |
| 20260506235507 | 16 | 37 | 4.8 | 14.5 | 0.00 | 0.00 | 0.00 | 48 | 1016.5 |
| 20260506235010 | 16 | 32 | 4.8 | 16.1 | 0.00 | 0.00 | 0.00 | 47 | 1016.5 |
| 20260506234518 | 16 | 33 | 4.8 | 19.3 | 0.00 | 0.00 | 0.00 | 47 | 1016.5 |
| 20260506234006 | 16 | 26 | 9.7 | 19.3 | 0.00 | 0.00 | 0.00 | 47 | 1016.3 |
| 20260506233510 | 16 | 25 | 9.7 | 17.7 | 0.00 | 0.00 | 0.00 | 48 | 1016.4 |
| 20260506233013 | 16 | 30 | 9.7 | 17.7 | 0.00 | 0.00 | 0.00 | 48 | 1016.4 |
| 20260506232511 | 17 | 34 | 4.8 | 16.1 | 0.00 | 0.00 | 0.00 | 48 | 1016.4 |
| 20260506232011 | 17 | 71 | 8.0 | 16.1 | 0.00 | 0.00 | 0.00 | 49 | 1016.3 |
| 20260506231513 | 17 | 85 | 6.4 | 12.9 | 0.00 | 0.00 | 0.00 | 48 | 1016.3 |
| 20260506231009 | 17 | 56 | 4.8 | 24.1 | 0.00 | 0.00 | 0.00 | 47 | 1016.2 |
| 20260506230510 | 17 | 49 | 6.4 | 22.5 | 0.00 | 0.00 | 0.00 | 47 | 1016.2 |
| 20260506230009 | 17 | 23 | 8.0 | 17.7 | 0.00 | 0.00 | 0.00 | 48 | 1016.1 |
| 20260506225507 | 17 | 30 | 6.4 | 22.5 | 0.00 | 0.00 | 0.00 | 47 | 1016.1 |
| 20260506225009 | 17 | 33 | 11.3 | 22.5 | 0.00 | 0.00 | 0.00 | 48 | 1016.1 |
| 20260506224530 | 17 | 35 | 8.0 | 19.3 | 0.00 | 0.00 | 0.00 | 47 | 1016.1 |
| 20260506224007 | 17 | 50 | 6.4 | 17.7 | 0.00 | 0.00 | 0.00 | 47 | 1016.0 |
| 20260506223506 | 17 | 327 | 1.6 | 19.3 | 0.00 | 0.00 | 0.00 | 47 | 1015.9 |
| 20260506223024 | 17 | 357 | 8.0 | 20.9 | 0.00 | 0.00 | 0.00 | 46 | 1015.9 |
| 20260506222512 | 18 | 36 | 6.4 | 24.1 | 0.00 | 0.00 | 0.00 | 45 | 1015.8 |
| 20260506222011 | 18 | 354 | 9.7 | 24.1 | 0.00 | 0.00 | 0.00 | 47 | 1015.7 |
| 20260506221526 | 18 | 318 | 6.4 | 24.1 | 0.00 | 0.00 | 0.00 | 47 | 1015.7 |
| 20260506221008 | 18 | 82 | 8.0 | 17.7 | 0.00 | 0.00 | 0.00 | 45 | 1015.7 |
| 20260506220508 | 18 | 311 | 6.4 | 19.3 | 0.00 | 0.00 | 0.00 | 46 | 1015.7 |
| 20260506220029 | 17 | 32 | 8.0 | 19.3 | 0.00 | 0.00 | 0.00 | 50 | 1015.7 |
| 20260506215505 | 17 | 50 | 9.7 | 19.3 | 0.00 | 0.00 | 0.00 | 48 | 1015.7 |
| 20260506215009 | 17 | 31 | 6.4 | 24.1 | 0.00 | 0.00 | 0.00 | 48 | 1015.7 |
| 20260506214522 | 17 | 36 | 14.5 | 24.1 | 0.00 | 0.00 | 0.00 | 47 | 1015.6 |
| 20260506214009 | 17 | 26 | 11.3 | 20.9 | 0.00 | 0.00 | 0.00 | 47 | 1015.6 |
| 20260506213510 | 17 | 289 | 6.4 | 25.7 | 0.00 | 0.00 | 0.00 | 47 | 1015.5 |
| 20260506213019 | 17 | 36 | 12.9 | 25.7 | 0.00 | 0.00 | 0.00 | 46 | 1015.6 |
| 20260506212510 | 18 | 307 | 9.7 | 24.1 | 0.00 | 0.00 | 0.00 | 45 | 1015.7 |
| 20260506212010 | 17 | 58 | 12.9 | 24.1 | 0.00 | 0.00 | 0.00 | 48 | 1015.7 |
| 20260506211515 | 17 | 40 | 9.7 | 19.3 | 0.00 | 0.00 | 0.00 | 49 | 1015.7 |
| 20260506211009 | 17 | 12 | 9.7 | 17.7 | 0.00 | 0.00 | 0.00 | 49 | 1015.7 |
| 20260506210508 | 17 | 21 | 8.0 | 25.7 | 0.00 | 0.00 | 0.00 | 49 | 1015.6 |
| 20260506210029 | 18 | 330 | 6.4 | 25.7 | 0.00 | 0.00 | 0.00 | 51 | 1015.7 |
| 20260506205509 | 17 | 49 | 6.4 | 24.1 | 0.00 | 0.00 | 0.00 | 52 | 1015.7 |
| 20260506205008 | 17 | 33 | 11.3 | 24.1 | 0.00 | 0.00 | 0.00 | 50 | 1015.9 |
| 20260506204523 | 17 | 12 | 8.0 | 22.5 | 0.00 | 0.00 | 0.00 | 51 | 1016.0 |
| 20260506204007 | 17 | 23 | 12.9 | 20.9 | 0.00 | 0.00 | 0.00 | 52 | 1016.0 |
| 20260506203507 | 17 | 7 | 9.7 | 19.3 | 0.00 | 0.00 | 0.00 | 51 | 1016.1 |
| 20260506203009 | 17 | 63 | 12.9 | 19.3 | 0.00 | 0.00 | 0.00 | 51 | 1016.2 |
| 20260506202504 | 17 | 63 | 6.4 | 14.5 | 0.00 | 0.00 | 0.00 | 51 | 1016.2 |
| 20260506202007 | 17 | 60 | 8.0 | 16.1 | 0.00 | 0.00 | 0.00 | 50 | 1016.3 |
| 20260506201508 | 17 | 66 | 6.4 | 16.1 | 0.00 | 0.00 | 0.00 | 52 | 1016.3 |
| 20260506201008 | 17 | 79 | 6.4 | 19.3 | 0.00 | 0.00 | 0.00 | 50 | 1016.3 |
| 20260506200506 | 17 | 23 | 6.4 | 19.3 | 0.00 | 0.00 | 0.00 | 51 | 1016.5 |
| 20260506200005 | 17 | 15 | 4.8 | 17.7 | 0.00 | 0.00 | 0.00 | 53 | 1016.5 |
| 20260506195507 | 16 | 46 | 9.7 | 17.7 | 0.00 | 0.00 | 0.00 | 52 | 1016.5 |
| 20260506195003 | 17 | 69 | 6.4 | 22.5 | 0.00 | 0.00 | 0.00 | 52 | 1016.4 |
| 20260506194505 | 17 | 29 | 12.9 | 22.5 | 0.00 | 0.00 | 0.00 | 51 | 1016.4 |
| 20260506194012 | 17 | 48 | 9.7 | 24.1 | 0.00 | 0.00 | 0.00 | 51 | 1016.4 |
| 20260506193503 | 17 | 65 | 11.3 | 24.1 | 0.00 | 0.00 | 0.00 | 55 | 1016.3 |
| 20260506193020 | 17 | 13 | 12.9 | 20.9 | 0.00 | 0.00 | 0.00 | 50 | 1016.4 |
| 20260506192509 | 17 | 18 | 6.4 | 20.9 | 0.00 | 0.00 | 0.00 | 51 | 1016.4 |
| 20260506192003 | 17 | 23 | 14.5 | 24.1 | 0.00 | 0.00 | 0.00 | 50 | 1016.6 |
| 20260506191520 | 17 | 88 | 11.3 | 24.1 | 0.00 | 0.00 | 0.00 | 53 | 1016.8 |
| 20260506191004 | 17 | 101 | 9.7 | 19.3 | 0.00 | 0.00 | 0.00 | 54 | 1016.9 |
| 20260506190503 | 17 | 88 | 11.3 | 20.9 | 0.00 | 0.00 | 0.00 | 52 | 1017.0 |
| 20260506190018 | 16 | 42 | 9.7 | 20.9 | 0.00 | 0.00 | 0.00 | 51 | 1017.2 |
| 20260506185505 | 17 | 17 | 14.5 | 20.9 | 0.00 | 0.00 | 0.00 | 53 | 1017.1 |
| 20260506185008 | 16 | 43 | 11.3 | 20.9 | 0.00 | 0.00 | 0.00 | 51 | 1017.2 |
| 20260506184516 | 17 | 71 | 9.7 | 20.9 | 0.00 | 0.00 | 0.00 | 51 | 1017.2 |
| 20260506184005 | 17 | 49 | 8.0 | 24.1 | 0.00 | 0.00 | 0.00 | 52 | 1017.1 |
| 20260506183509 | 17 | 18 | 3.2 | 24.1 | 0.00 | 0.00 | 0.00 | 53 | 1017.2 |
| 20260506183018 | 17 | 31 | 11.3 | 22.5 | 0.00 | 0.00 | 0.00 | 52 | 1017.4 |
| 20260506182506 | 17 | 27 | 9.7 | 19.3 | 0.00 | 0.00 | 0.00 | 53 | 1017.3 |
| 20260506182011 | 17 | 22 | 8.0 | 20.9 | 0.00 | 0.00 | 0.00 | 52 | 1017.4 |
| 20260506181510 | 17 | 15 | 9.7 | 24.1 | 0.00 | 0.00 | 0.00 | 53 | 1017.4 |
| 20260506181011 | 16 | 96 | 11.3 | 24.1 | 0.00 | 0.00 | 0.00 | 53 | 1017.5 |
| 20260506180506 | 17 | 27 | 14.5 | 24.1 | 0.00 | 0.00 | 0.00 | 51 | 1017.6 |
| 20260506180006 | 17 | 39 | 12.9 | 25.7 | 0.00 | 0.00 | 0.00 | 51 | 1017.5 |
| 20260506175506 | 17 | 19 | 9.7 | 25.7 | 0.00 | 0.00 | 0.00 | 52 | 1017.6 |
| 20260506175003 | 16 | 26 | 8.0 | 27.4 | 0.00 | 0.00 | 0.00 | 54 | 1017.6 |
| 20260506174505 | 17 | 32 | 14.5 | 27.4 | 0.00 | 0.00 | 0.00 | 52 | 1017.8 |
| 20260506174008 | 17 | 44 | 12.9 | 24.1 | 0.00 | 0.00 | 0.00 | 52 | 1017.9 |
| 20260506173508 | 17 | 341 | 8.0 | 24.1 | 0.00 | 0.00 | 0.00 | 54 | 1017.8 |
| 20260506173021 | 16 | 19 | 12.9 | 30.6 | 0.00 | 0.00 | 0.00 | 49 | 1018.0 |
| 20260506172506 | 16 | 63 | 14.5 | 30.6 | 0.00 | 0.00 | 0.00 | 53 | 1018.2 |